[[{"header":{"parameterUnit":"m.s-1","parameterCategory":1,"la1":30.2991,"la2":30.254,"lo1":-89.0895,"lo2":-89.0444,"dy":0.0017,"dx":0.0017,"nx":28,"ny":28,"refTime":"2024-07-26T09:00:00:Z","depth":0,"parameterNumber":2,"parameterNumberName":"U-component_of_WINDS"},"data":[0,0,0,0,0,0,0,0,0,0,0,0,0,0,0,0,0,0,0,0,0,0,0,0,0,0,0,0,0,0,0,0,0,0,0,0,0,0,0,0,0,0,0,0,0,0,0,0,0,0,0,0,0,0,0,0,0,0,-2.7224,-2.7224,0,-2.7215,-2.7215,-2.7215,-2.7122,-2.712,-2.7117,-2.7115,-2.7107,-2.7108,-2.711,0,0,0,0,0,0,0,0,0,0,0,0,0,-2.7161,-2.7163,-2.7224,-2.7224,-2.7224,-2.7215,-2.7215,-2.7215,-2.7122,-2.7119,-2.7117,-2.7114,-2.7106,-2.7108,-2.7111,0,0,0,0,0,0,0,0,0,0,0,0,0,-2.7174,-2.7163,-2.7224,-2.7176,-2.7172,-2.7215,-2.7215,-2.7215,-2.7123,-2.7119,-2.7116,-2.7113,-2.7105,-2.7108,-2.7111,-2.7199,0,0,-2.712,-2.7121,0,0,0,0,0,0,0,0,-2.7174,-2.7177,-2.7184,-2.718,-2.7175,-2.7166,-2.719,-2.721,-2.7124,-2.7142,-2.7115,-2.7111,-2.7129,-2.713,-2.7136,-2.7199,-2.7198,-2.712,-2.7122,-2.7123,-2.7124,0,0,0,0,0,0,0,-2.7173,-2.7176,-2.722,-2.7184,-2.7179,-2.7156,-2.7154,-2.7193,-2.7155,-2.714,-2.7133,-2.7133,-2.7126,-2.7133,-2.7135,-2.7198,-2.712,-2.7123,-2.7124,-2.7126,-2.7332,-2.7335,0,0,0,0,0,0,-2.7178,-2.7176,-2.7221,-2.722,-2.7166,-2.716,-2.7158,-2.7172,-2.7154,-2.7148,-2.7136,-2.7129,-2.713,-2.7132,-2.7134,-2.7235,-2.7123,-2.7126,-2.7127,-2.7328,-2.7333,-2.7337,0,0,0,0,0,0,-2.7177,-2.7183,-2.7221,-2.7196,-2.7199,-2.7165,-2.7182,-2.7174,-2.7181,-2.7152,-2.7145,-2.715,-2.7127,-2.713,-2.7183,-2.7234,-2.7127,-2.713,-2.7324,-2.7329,-2.7335,-2.7438,0,0,0,0,0,0,-2.7176,-2.7183,-2.7216,-2.7198,-2.7201,-2.727,-2.7185,-2.7177,-2.7186,-2.7177,-2.7163,-2.7158,-2.7125,-2.718,-2.7186,-2.7236,-2.7132,-2.7319,-2.7326,-2.7333,-2.743,-2.7447,-2.7461,0,0,0,0,0,-2.7174,-2.7246,-2.7218,-2.7224,-2.7241,-2.7273,-2.7275,-2.7236,-2.7191,-2.7223,-2.7205,-2.7158,-2.7228,-2.7186,-2.7193,-2.7244,-2.7316,-2.7324,-2.7332,-2.7423,-2.7444,-2.7461,0,0,0,0,0,0,-2.7271,-2.7243,-2.7212,-2.728,-2.728,-2.7257,-2.7297,-2.7259,-2.7271,-2.7262,-2.7213,-2.7211,-2.7271,-2.7263,-2.7217,-2.7328,-2.7263,-2.7274,-2.733,-2.7349,-2.7364,-2.7364,-2.7134,0,0,0,0,0,-2.7301,-2.7329,-2.7302,-2.7365,-2.7367,-2.7333,-2.7345,-2.7315,-2.7313,-2.7312,-2.7297,-2.7297,-2.7319,-2.7334,-2.7352,-2.743,-2.7425,-2.7468,-2.7484,-2.7496,-2.7505,-2.7544,-2.7563,-2.7364,-2.7364,-2.7364,0,0,-2.7362,-2.735,-2.737,-2.7384,-2.7381,-2.7411,-2.7333,-2.7368,-2.739,-2.7317,-2.7366,-2.7356,-2.7352,-2.7418,-2.7446,-2.7413,-2.7559,-2.7507,-2.7517,-2.7519,-2.7555,-2.7574,-2.7591,-2.737,-2.7369,-2.7368,0,0,-2.7487,-2.7482,-2.7533,-2.7531,-2.7526,-2.7503,-2.7516,-2.75,-2.749,-2.7538,-2.7484,-2.751,-2.7548,-2.7548,-2.7553,-2.768,-2.7637,-2.7688,-2.7767,-2.7806,-2.7822,-2.7835,-2.7879,-2.7896,-2.7697,-2.7697,-2.7697,0,-2.7563,-2.7606,-2.7564,-2.7602,-2.761,-2.7547,-2.7598,-2.7598,-2.76,-2.7607,-2.757,-2.7617,-2.7611,-2.7674,-2.7706,-2.7712,-2.7725,-2.7688,-2.7823,-2.7836,-2.7848,-2.7889,-2.7906,-2.7703,-2.7702,-2.7702,-2.7701,0,-2.7699,-2.773,-2.7772,-2.7775,-2.7788,-2.7833,-2.7797,-2.7816,-2.7785,-2.7766,-2.7816,-2.7806,-2.7821,-2.7835,-2.7805,-2.7895,-2.7874,-2.7831,-2.7765,-2.7874,-2.7912,-2.7927,-2.7712,-2.771,-2.7708,-2.7706,0,0,-2.7884,-2.7864,-2.788,-2.788,-2.7871,-2.7894,-2.7937,-2.7951,-2.7967,-2.7972,-2.8005,-2.804,-2.8,-2.8006,-2.7976,-2.8011,-2.8111,-2.7963,-2.7962,-2.7989,-2.8207,-2.8238,-2.8257,-2.8083,-2.8086,-2.8088,-2.8207,0,-2.8004,-2.8074,-2.8038,-2.8113,-2.814,-2.8081,-2.8118,-2.8116,-2.81,-2.8122,-2.8104,-2.8129,-2.8075,-2.8078,-2.811,-2.8092,-2.8153,-2.8083,-2.8113,-2.8115,-2.8114,-2.8277,-2.831,-2.8422,-2.8222,-2.8224,-2.8226,0,-2.8152,-2.8162,-2.824,-2.8225,-2.8236,-2.8269,-2.828,-2.8301,-2.8299,-2.8284,-2.8292,-2.8254,-2.8295,-2.8231,-2.8286,-2.8239,-2.825,-2.8243,-2.8247,-2.8246,-2.8175,-2.8279,-2.8457,-2.8473,-2.8249,-2.8247,-2.8246,0,-2.8277,-2.831,-2.836,-2.8363,-2.8348,-2.8373,-2.8368,-2.8362,-2.8373,-2.8383,-2.839,-2.8404,-2.8412,-2.8424,-2.8392,-2.8349,-2.8451,-2.8385,-2.8439,-2.844,-2.8462,-2.846,-2.8641,-2.8472,-2.8472,-2.8472,-2.8472,0,-2.8413,-2.8462,-2.8416,-2.8447,-2.8501,-2.846,-2.8514,-2.8503,-2.8498,-2.8526,-2.8477,-2.8504,-2.846,-2.8483,-2.8458,-2.8507,-2.8511,-2.85,-2.8493,-2.8504,-2.8505,-2.8508,-2.8499,-2.8476,-2.8475,-2.8474,-2.8474,0,-2.856,-2.8531,-2.8582,-2.8564,-2.8561,-2.8601,-2.8586,-2.8614,-2.8595,-2.8631,-2.8637,-2.8607,-2.8632,-2.8601,-2.8623,-2.8606,-2.8672,-2.8654,-2.8673,-2.8667,-2.8722,-2.8717,-2.891,-2.8933,-2.8752,-2.8753,-2.8755,0,-2.8647,-2.8684,-2.867,-2.8685,-2.8683,-2.8708,-2.8719,-2.8681,-2.8694,-2.8695,-2.8722,-2.8743,-2.8757,-2.8799,-2.8779,-2.8796,-2.8776,-2.8843,-2.8778,-2.8788,-2.8775,-2.8772,-2.8775,-2.8856,-2.8858,-2.886,-2.8861,0,-2.8805,-2.879,-2.8807,-2.8821,-2.8835,-2.8844,-2.8849,-2.8864,-2.8824,-2.8842,-2.8866,-2.8877,-2.89,-2.892,-2.8932,-2.8926,-2.8887,-2.8882,-2.8895,-2.8905,-2.8914,-2.8908,-2.8707,-2.8877,-2.8876,-2.8874,-2.8873,-2.8873,-2.8924,-2.8953,-2.8948,-2.897,-2.897,-2.8976,-2.9001,-2.8985,-2.9005,-2.902,-2.8996,-2.9027,-2.9024,-2.9035,-2.9034,-2.9058,-2.9029,-2.9048,-2.9053,-2.9058,-2.9065,-2.8913,-2.906,-2.906,-2.9059,-2.9059,-2.9058,0,-2.9078,-2.9072,-2.9092,-2.91,-2.9118,-2.908,-2.9084,-2.91,-2.9128,-2.9128,-2.9143,-2.9171,-2.9191,-2.9174,-2.9191,-2.9213,-2.9195,-2.9218,-2.9215,-2.9214,-2.9091,-2.9077,-2.9232,-2.9232,-2.9232,-2.9232,-2.9232,-2.9232,-2.9159,-2.9207,-2.9191,-2.9238,-2.9232,-2.9261,-2.9266,-2.9271,-2.9271,-2.9305,-2.9321,-2.931,-2.9304,-2.9319,-2.9336,-2.9331,-2.9338,-2.9367,-2.9355,-2.924,-2.9223,-2.9207,-2.9193,-2.937,-2.937,-2.9476,-2.9477,-2.9478]},{"header":{"parameterUnit":"m.s-1","parameterCategory":1,"la1":30.2991,"la2":30.254,"lo1":-89.0895,"lo2":-89.0444,"dy":0.0017,"dx":0.0017,"nx":28,"ny":28,"refTime":"2024-07-26T09:00:00:Z","depth":0,"parameterNumber":3,"parameterNumberName":"V-component_of_WINDS"},"data":[0,0,0,0,0,0,0,0,0,0,0,0,0,0,0,0,0,0,0,0,0,0,0,0,0,0,0,0,0,0,0,0,0,0,0,0,0,0,0,0,0,0,0,0,0,0,0,0,0,0,0,0,0,0,0,0,0,0,0.8715,0.8715,0,0.8689,0.8688,0.8688,0.8601,0.8599,0.8597,0.8595,0.857,0.8571,0.8572,0,0,0,0,0,0,0,0,0,0,0,0,0,0.8693,0.8694,0.8715,0.8715,0.8715,0.8689,0.8688,0.8688,0.8601,0.8599,0.8596,0.8594,0.857,0.8571,0.8572,0,0,0,0,0,0,0,0,0,0,0,0,0,0.8688,0.8694,0.8715,0.8668,0.8664,0.8689,0.8688,0.8688,0.8602,0.8599,0.8596,0.8593,0.8569,0.8571,0.8572,0.8642,0,0,0.8578,0.8578,0,0,0,0,0,0,0,0,0.8689,0.8689,0.8675,0.8672,0.8667,0.8645,0.8671,0.8672,0.8602,0.8625,0.8595,0.8592,0.8597,0.8597,0.8598,0.864,0.8639,0.8578,0.8579,0.858,0.858,0,0,0,0,0,0,0,0.8689,0.869,0.8705,0.8675,0.867,0.8649,0.8645,0.8671,0.8628,0.8623,0.8617,0.8615,0.8594,0.8597,0.8597,0.8639,0.8578,0.8579,0.858,0.8581,0.8737,0.874,0,0,0,0,0,0,0.8696,0.8691,0.8706,0.8704,0.8671,0.8652,0.8647,0.8655,0.8628,0.8621,0.8617,0.8611,0.8595,0.8595,0.8596,0.8675,0.858,0.8581,0.8582,0.8734,0.8738,0.8741,0,0,0,0,0,0,0.8696,0.8698,0.8707,0.8696,0.8695,0.8655,0.8664,0.8656,0.8658,0.8623,0.8615,0.8627,0.8593,0.8593,0.8631,0.8673,0.8582,0.8584,0.8731,0.8735,0.874,0.8835,0,0,0,0,0,0,0.8696,0.8699,0.8724,0.8697,0.8696,0.8742,0.8667,0.8658,0.8661,0.8652,0.863,0.8624,0.8591,0.8629,0.8633,0.8674,0.8585,0.8727,0.8733,0.8738,0.8827,0.8842,0.8854,0,0,0,0,0,0.8695,0.8752,0.8726,0.8728,0.8727,0.8745,0.8744,0.8704,0.8665,0.869,0.8668,0.8625,0.8668,0.8633,0.8637,0.8679,0.8724,0.8731,0.8738,0.8821,0.8839,0.8854,0,0,0,0,0,0,0.8786,0.8748,0.8718,0.8768,0.876,0.873,0.8761,0.8724,0.8727,0.8719,0.867,0.8666,0.871,0.8698,0.8661,0.8745,0.8689,0.8697,0.8751,0.8767,0.8781,0.8783,0.8586,0,0,0,0,0,0.8812,0.8829,0.8794,0.8842,0.8839,0.8801,0.8807,0.8777,0.8767,0.8764,0.8744,0.8737,0.8748,0.8757,0.8766,0.8825,0.882,0.8856,0.887,0.8881,0.8888,0.8919,0.8935,0.8764,0.8764,0.8764,0,0,0.8865,0.8846,0.886,0.886,0.885,0.8869,0.8799,0.8822,0.8836,0.8767,0.8801,0.8787,0.8776,0.8824,0.8845,0.8816,0.8934,0.889,0.8899,0.89,0.8928,0.8944,0.8959,0.8769,0.8768,0.8767,0,0,0.8973,0.896,0.8998,0.899,0.8976,0.895,0.8959,0.8935,0.8922,0.8956,0.8904,0.8921,0.8942,0.8936,0.8936,0.9042,0.9002,0.9046,0.9116,0.9147,0.916,0.9172,0.921,0.9224,0.9054,0.9054,0.9054,0,0.9041,0.9067,0.9023,0.9049,0.9051,0.8989,0.9027,0.9022,0.9012,0.9015,0.8982,0.9008,0.8996,0.9042,0.9068,0.907,0.908,0.9048,0.9162,0.9173,0.9183,0.9219,0.9234,0.9059,0.9059,0.9058,0.9058,0,0.9152,0.9172,0.9204,0.9196,0.9201,0.9233,0.9194,0.9205,0.9174,0.9152,0.9188,0.9171,0.9176,0.9184,0.9155,0.9227,0.921,0.9171,0.9113,0.9206,0.9239,0.9252,0.9067,0.9065,0.9064,0.9062,0,0,0.9316,0.9282,0.9295,0.9291,0.9271,0.9285,0.9315,0.9319,0.933,0.9325,0.935,0.9369,0.9333,0.9333,0.9302,0.9329,0.9415,0.9286,0.9285,0.9311,0.9494,0.9524,0.954,0.9388,0.9391,0.9393,0.9495,0,0.9418,0.9467,0.9428,0.9484,0.9501,0.9443,0.9469,0.9461,0.9441,0.9453,0.9432,0.9447,0.9397,0.9397,0.9421,0.9399,0.9451,0.9391,0.9411,0.9413,0.9416,0.9557,0.9589,0.9686,0.9507,0.951,0.9511,0,0.9544,0.9544,0.9602,0.9579,0.9585,0.9609,0.961,0.9622,0.9611,0.9595,0.9596,0.9558,0.9586,0.953,0.9569,0.953,0.9536,0.9527,0.9529,0.953,0.9468,0.9562,0.9716,0.9731,0.9531,0.9529,0.9528,0,0.9658,0.9673,0.971,0.9708,0.9681,0.97,0.969,0.9676,0.9681,0.9682,0.9685,0.969,0.9692,0.9697,0.9662,0.9624,0.9706,0.9647,0.9694,0.9695,0.9714,0.9713,0.9872,0.9718,0.9718,0.9718,0.9717,0,0.9776,0.9814,0.976,0.9783,0.9824,0.9779,0.9821,0.9805,0.9793,0.9812,0.9762,0.9782,0.9734,0.9748,0.9721,0.9758,0.976,0.9748,0.974,0.9753,0.9754,0.9756,0.9748,0.9721,0.972,0.972,0.9719,0,0.991,0.9876,0.9912,0.9884,0.9878,0.9909,0.9886,0.9906,0.9883,0.9908,0.9911,0.9876,0.989,0.9855,0.9865,0.9847,0.99,0.9881,0.9903,0.9898,0.9947,0.9943,1.0113,1.0133,0.9966,0.9968,0.9969,0,0.9988,1.0015,0.999,0.9999,0.9992,1.0007,1.0011,0.9968,0.9975,0.9965,0.9987,0.9997,1.0003,1.0029,1.0005,1.0012,0.9993,1.0052,0.9994,1.0006,0.9995,0.9994,0.9996,1.0064,1.0067,1.0068,1.007,0,1.0129,1.0111,1.0119,1.0122,1.0129,1.0129,1.0126,1.0136,1.009,1.0101,1.0115,1.012,1.0129,1.014,1.0142,1.0132,1.0094,1.0088,1.0099,1.0112,1.0124,1.0119,0.9936,1.0084,1.0083,1.0082,1.0081,1.008,1.0237,1.0259,1.0245,1.0256,1.0249,1.0248,1.0265,1.0244,1.0255,1.0259,1.0233,1.0253,1.0242,1.024,1.0235,1.025,1.0223,1.024,1.0244,1.0249,1.0257,1.0122,1.025,1.025,1.0249,1.0249,1.0249,0,1.0377,1.0365,1.0375,1.0372,1.0381,1.0343,1.0338,1.0348,1.0366,1.0359,1.0365,1.0382,1.0392,1.0369,1.0376,1.0393,1.0375,1.0396,1.0394,1.0393,1.028,1.027,1.041,1.041,1.041,1.041,1.041,1.041,1.045,1.0485,1.0466,1.0497,1.0485,1.0503,1.0503,1.0502,1.0496,1.0516,1.0524,1.0508,1.0495,1.0501,1.0509,1.0502,1.0507,1.0534,1.0521,1.0417,1.0401,1.0386,1.0376,1.0536,1.0536,1.0632,1.0633,1.0634]}]]